Location: Phoenix
(33.4480°N, 112.0730°W)
Time: 11:00:08
(UTC-07:00)

ISS - All Passes

Search period start: 30 August 2015 00:00
Search period end: 09 September 2015 00:00
Orbit: 399 x 401 km, 51.6° (Epoch: 30 August)

Date Brightness Start Highest point End Pass type
(mag) Time Alt. Az. Time Alt. Az. Time Alt. Az.
30 Aug - 07:46:31 10° S 07:48:36 16° SE 07:50:46 10° E daylight
30 Aug - 09:21:50 10° WSW 09:24:48 33° NW 09:27:48 10° NNE daylight
30 Aug - 15:52:20 10° NNW 15:55:21 35° NE 15:58:22 10° ESE daylight
30 Aug - 17:29:28 10° W 17:31:34 16° SW 17:33:34 10° SSW daylight
31 Aug - 08:28:18 10° SW 08:31:32 74° NW 08:34:46 10° NE daylight
31 Aug - 14:59:41 10° NNW 15:02:05 19° NNE 15:04:32 10° E daylight
31 Aug - 16:35:37 10° WNW 16:38:37 34° SW 16:41:36 10° SSE daylight
01 Sep - 07:35:42 10° SSW 07:38:48 45° SE 07:41:55 10° ENE daylight
01 Sep - 09:13:20 10° WNW 09:15:27 16° NNW 09:17:31 10° N daylight
01 Sep - 14:08:00 10° N 14:09:11 12° NNE 14:10:27 10° NE daylight
01 Sep - 15:42:48 10° NW 15:46:04 83° SW 15:49:19 10° SE daylight
02 Sep - 06:44:08 10° S 06:46:35 20° SE 06:49:06 10° ENE daylight
02 Sep - 08:20:08 10° W 08:22:59 27° NW 08:25:49 10° NNE daylight
02 Sep - 14:50:44 10° NNW 14:53:52 44° NE 14:57:02 10° ESE daylight
02 Sep - 16:28:34 10° W 16:30:07 13° SW 16:31:33 10° SSW daylight
03 Sep - 07:27:54 10° WSW 07:31:04 55° NW 07:34:15 10° NE daylight
03 Sep - 13:59:21 10° NNW 14:02:03 23° NE 14:04:46 10° E daylight
03 Sep - 15:35:45 10° WNW 15:38:34 26° SW 15:41:21 10° S daylight
04 Sep - 06:36:30 10° SW 06:39:42 65° SE 06:42:55 10° NE daylight
04 Sep - 08:14:55 10° WNW 08:16:34 13° NNW 08:18:09 10° N daylight
04 Sep - 13:08:46 10° N 13:10:36 14° NNE 13:12:29 10° ENE daylight
04 Sep - 14:44:12 10° NW 14:47:26 58° SW 14:50:40 10° SSE daylight
05 Sep - 05:46:02 10° SSW 05:48:51 28° SE 05:51:43 10° ENE daylight
05 Sep - 07:22:53 10° W 07:25:27 21° NW 07:28:00 10° NNE daylight
05 Sep - 13:53:25 10° NW 13:56:40 63° NE 13:59:57 10° SE daylight
06 Sep - 04:56:45 10° SSE 04:58:30 14° SE 05:00:22 10° E visible
06 Sep - 06:31:51 10° WSW 06:34:54 38° NW 06:37:57 10° NNE daylight
06 Sep - 13:03:19 10° NNW 13:06:18 31° NE 13:09:18 10° ESE daylight
06 Sep - 14:40:25 10° W 14:42:47 18° SW 14:45:05 10° S daylight
07 Sep - 05:41:39 10° SW 05:44:54 79° NW 05:48:08 10° NE visible
07 Sep - 07:21:42 10° NNW 07:22:02 10° NNW 07:22:16 10° NNW daylight
07 Sep - 12:13:54 10° NNW 12:16:18 19° NNE 12:18:44 10° E daylight
07 Sep - 13:49:59 10° WNW 13:53:03 36° SW 13:56:07 10° SSE daylight
08 Sep - 04:52:17 10° SSW 04:55:24 46° SE 04:58:32 10° ENE visible
08 Sep - 06:30:12 10° WNW 06:32:17 16° NNW 06:34:19 10° N daylight
08 Sep - 11:25:21 10° N 11:26:40 12° NNE 11:28:04 10° NE daylight
08 Sep - 13:00:27 10° NW 13:03:44 78° SW 13:07:02 10° SE daylight
